Location: Добрич
(43.6638°N, 27.9002°E)
Time: 06:01:57
(UTC+03:00)

ISS - Pass Details

Date: 26 April 2026
Orbit: 414 x 424 km, 51.6° (Epoch: 15 May)

Event Time Altitude Azimuth Distance (km) Brightness Sun altitude
Exits shadow 04:59:54 - 289° (WNW) 1,548 -1.2 -12.0°
Reaches altitude 10° 05:00:03 10° 290° (WNW) 1,498 -1.3 -12.0°
Maximum altitude 05:02:53 24° 347° (NNW) 905 -1.9 -11.5°
Drops below altitude 10° 05:05:43 10° 45° (NE) 1,506 0.5 -11.1°
Sets 05:08:05 0° 59° (ENE) 2,375 2.4 -10.7°
